User: anonymous   Login
Location: Unspecified
(0.0000°N, 0.0000°E)
Time: 08:25:50
(UTC+00:00)
Language:

Jawsat - Orbit

View from above orbital plane
View from above orbital plane
View from above satellite
View from above satellite

Ground track
Ground track

The orbit data is extracted from the following two-line orbital elements,

1 26061U 00004A   24114.50757268  .00001861  00000-0  56947-3 0  9991
2 26061 100.2248 313.3195 0032224 310.9614  48.8783 14.43063275273663
Epoch (UTC): 23 April 2024 12:10:54
Eccentricity: 0.0032224
inclination: 100.2248°
perigee height: 725 km
apogee height: 771 km
right ascension of ascending node: 313.3195°
argument of perigee: 310.9614°
revolutions per day: 14.43063275
mean anomaly at epoch: 48.8783°
orbit number at epoch: 27366

The dashed part of the orbit path shows where the satellite is in the earth's shadow,  

DLR